• In Russia
  • List of Countries
  • For 7 days
  • Water Temperature
  • Weather Map
  • Weather Widgets
  • user-avatar
    Login

    Hourly Weather Kaprun

    Today, 24 August, Saturday

    Time Temperature Precipitation Wind Pressure Humidity
    00:00 +9°C° 0 mm 1 mps 603 mmHg 86%
    01:00 +9°C° 0 mm 1 mps 602 mmHg 84%
    02:00 +9°C° 0 mm 1 mps 602 mmHg 84%
    03:00 +8°C° 0 mm 2 mps 602 mmHg 84%
    04:00 +7°C° 0 mm 2 mps 602 mmHg 84%
    05:00 +9°C° 0 mm 1 mps 602 mmHg 83%
    06:00 +10°C° 0 mm 1 mps 602 mmHg 81%
    07:00 +11°C° 0 mm 1 mps 603 mmHg 80%
    08:00 +14°C° 0.1 mm 1 mps 604 mmHg 73%
    09:00 +16°C° 0.1 mm 1 mps 605 mmHg 65%
    10:00 +19°C° 0.1 mm 1 mps 606 mmHg 57%
    11:00 +19°C° 0.6 mm 1 mps 605 mmHg 58%
    12:00 +19°C° 0.6 mm 1 mps 605 mmHg 59%
    13:00 +18°C° 0.6 mm 2 mps 605 mmHg 60%
    14:00 +18°C° 1.1 mm 2 mps 604 mmHg 65%
    15:00 +18°C° 1.1 mm 1 mps 604 mmHg 69%
    16:00 +16°C° 1.1 mm 1 mps 603 mmHg 74%
    17:00 +14°C° 0.6 mm 1 mps 603 mmHg 79%
    18:00 +13°C° 0.6 mm 1 mps 602 mmHg 84%
    19:00 +11°C° 0.6 mm 1 mps 601 mmHg 89%
    20:00 +10°C° 0.1 mm 1 mps 601 mmHg 88%
    21:00 +10°C° 0.1 mm 1 mps 601 mmHg 88%
    22:00 +9°C° 0.1 mm 1 mps 601 mmHg 88%
    23:00 +9°C° 0 mm 1 mps 601 mmHg 88%

    Tomorrow, 25 August, Sunday

    Time Temperature Precipitation Wind Pressure Humidity
    00:00 +9°C° 0 mm 1 mps 601 mmHg 88%
    01:00 +8°C° 0 mm 1 mps 600 mmHg 87%
    02:00 +8°C° 0 mm 1 mps 600 mmHg 87%
    03:00 +8°C° 0 mm 1 mps 600 mmHg 86%
    04:00 +8°C° 0 mm 1 mps 600 mmHg 85%
    05:00 +10°C° 0 mm 1 mps 601 mmHg 82%
    06:00 +11°C° 0 mm 1 mps 601 mmHg 80%
    07:00 +11°C° 0 mm 0 mps 602 mmHg 77%
    08:00 +14°C° 0 mm 1 mps 603 mmHg 69%
    09:00 +16°C° 0 mm 1 mps 604 mmHg 62%
    10:00 +19°C° 0 mm 1 mps 604 mmHg 54%
    11:00 +19°C° 0.2 mm 1 mps 604 mmHg 54%
    12:00 +19°C° 0.2 mm 1 mps 604 mmHg 54%
    13:00 +20°C° 0.2 mm 1 mps 604 mmHg 54%
    14:00 +19°C° 1.1 mm 1 mps 604 mmHg 61%
    15:00 +18°C° 1.1 mm 1 mps 604 mmHg 67%
    16:00 +18°C° 1.1 mm 1 mps 603 mmHg 74%
    17:00 +15°C° 1.1 mm 1 mps 603 mmHg 79%
    18:00 +13°C° 1.1 mm 1 mps 602 mmHg 85%
    19:00 +11°C° 1.1 mm 0 mps 601 mmHg 90%
    20:00 +11°C° 0.5 mm 1 mps 601 mmHg 91%
    21:00 +11°C° 0.5 mm 1 mps 602 mmHg 92%
    22:00 +10°C° 0.5 mm 1 mps 602 mmHg 92%
    23:00 +10°C° 0.1 mm 1 mps 601 mmHg 92%

    Day after tomorrow, 26 August, Monday

    Time Temperature Precipitation Wind Pressure Humidity
    00:00 +8°C° 0.1 mm 0 mps 601 mmHg 91%
    01:00 +8°C° 0.1 mm 0 mps 601 mmHg 91%
    02:00 +8°C° 0 mm 0 mps 601 mmHg 91%
    03:00 +8°C° 0 mm 1 mps 600 mmHg 91%
    04:00 +8°C° 0 mm 1 mps 600 mmHg 91%
    05:00 +10°C° 0 mm 1 mps 601 mmHg 88%
    06:00 +10°C° 0 mm 0 mps 601 mmHg 86%
    07:00 +11°C° 0 mm 0 mps 602 mmHg 83%
    08:00 +14°C° 0.1 mm 1 mps 603 mmHg 77%
    09:00 +16°C° 0.1 mm 1 mps 603 mmHg 71%
    10:00 +18°C° 0.1 mm 1 mps 604 mmHg 65%
    11:00 +19°C° 0.6 mm 1 mps 604 mmHg 63%
    12:00 +19°C° 0.6 mm 1 mps 604 mmHg 60%
    13:00 +20°C° 0.6 mm 1 mps 604 mmHg 58%
    14:00 +19°C° 0.8 mm 1 mps 604 mmHg 62%
    15:00 +19°C° 0.8 mm 1 mps 603 mmHg 67%
    16:00 +18°C° 0.8 mm 1 mps 603 mmHg 71%
    17:00 +15°C° 1 mm 1 mps 602 mmHg 77%
    18:00 +13°C° 1 mm 0 mps 602 mmHg 83%
    19:00 +12°C° 1 mm 0 mps 601 mmHg 88%
    20:00 +11°C° 0.4 mm 0 mps 601 mmHg 88%
    21:00 +12°C° 0.4 mm 1 mps 601 mmHg 88%
    22:00 +11°C° 0.4 mm 1 mps 601 mmHg 88%
    23:00 +11°C° 0.1 mm 1 mps 601 mmHg 89%

    27 August, Tuesday

    Time Temperature Precipitation Wind Pressure Humidity
    00:00 +10°C° 0.1 mm 1 mps 600 mmHg 89%
    01:00 +10°C° 0.1 mm 1 mps 600 mmHg 89%
    02:00 +9°C° 0 mm 1 mps 600 mmHg 89%
    03:00 +9°C° 0 mm 1 mps 600 mmHg 89%
    04:00 +9°C° 0 mm 1 mps 600 mmHg 89%
    05:00 +10°C° 0 mm 1 mps 600 mmHg 86%
    06:00 +11°C° 0 mm 0 mps 601 mmHg 83%
    07:00 +12°C° 0 mm 0 mps 602 mmHg 81%
    08:00 +14°C° 0.2 mm 0 mps 603 mmHg 75%
    09:00 +16°C° 0.2 mm 1 mps 603 mmHg 69%
    10:00 +19°C° 0.2 mm 1 mps 604 mmHg 64%
    11:00 +19°C° 1 mm 1 mps 604 mmHg 63%
    12:00 +20°C° 1 mm 1 mps 604 mmHg 63%
    13:00 +20°C° 1 mm 1 mps 604 mmHg 63%
    14:00 +20°C° 1.2 mm 1 mps 604 mmHg 65%
    15:00 +19°C° 1.2 mm 1 mps 603 mmHg 67%
    16:00 +19°C° 1.2 mm 1 mps 603 mmHg 69%
    17:00 +16°C° 0.7 mm 1 mps 602 mmHg 76%
    18:00 +14°C° 0.7 mm 1 mps 601 mmHg 82%
    19:00 +12°C° 0.7 mm 1 mps 601 mmHg 89%
    20:00 +11°C° 0.1 mm 1 mps 601 mmHg 89%
    21:00 +11°C° 0.1 mm 1 mps 601 mmHg 90%
    22:00 +10°C° 0.1 mm 1 mps 601 mmHg 91%
    23:00 +10°C° 0 mm 1 mps 601 mmHg 91%

    28 August, Wednesday

    Time Temperature Precipitation Wind Pressure Humidity
    00:00 +10°C° 0 mm 1 mps 600 mmHg 91%
    01:00 +10°C° 0 mm 1 mps 600 mmHg 90%
    02:00 +9°C° 0 mm 1 mps 600 mmHg 90%
    03:00 +9°C° 0 mm 1 mps 600 mmHg 89%
    04:00 +9°C° 0 mm 1 mps 600 mmHg 89%
    05:00 +10°C° 0 mm 1 mps 600 mmHg 86%
    06:00 +12°C° 0 mm 1 mps 601 mmHg 84%
    07:00 +13°C° 0 mm 1 mps 602 mmHg 82%
    08:00 +15°C° 0 mm 1 mps 602 mmHg 74%
    09:00 +18°C° 0 mm 1 mps 603 mmHg 67%
    10:00 +19°C° 0 mm 1 mps 604 mmHg 59%
    11:00 +20°C° 0.7 mm 1 mps 604 mmHg 60%
    12:00 +20°C° 0.7 mm 1 mps 603 mmHg 61%
    13:00 +19°C° 0.7 mm 2 mps 603 mmHg 62%
    14:00 +19°C° 1.9 mm 1 mps 603 mmHg 67%
    15:00 +19°C° 1.9 mm 1 mps 602 mmHg 72%
    16:00 +18°C° 1.9 mm 1 mps 602 mmHg 77%
    17:00 +15°C° 1.5 mm 1 mps 601 mmHg 82%
    18:00 +13°C° 1.5 mm 1 mps 600 mmHg 86%
    19:00 +12°C° 1.5 mm 1 mps 600 mmHg 91%
    20:00 +11°C° 0.8 mm 1 mps 600 mmHg 91%
    21:00 +11°C° 0.8 mm 1 mps 600 mmHg 91%
    22:00 +10°C° 0.8 mm 1 mps 600 mmHg 91%
    23:00 +10°C° 0.2 mm 1 mps 599 mmHg 91%

    29 August, Thursday

    Time Temperature Precipitation Wind Pressure Humidity
    00:00 +10°C° 0.2 mm 1 mps 599 mmHg 90%
    01:00 +9°C° 0.2 mm 1 mps 599 mmHg 90%
    02:00 +9°C° 0 mm 1 mps 599 mmHg 89%
    03:00 +9°C° 0 mm 1 mps 599 mmHg 89%
    04:00 +9°C° 0 mm 1 mps 599 mmHg 88%
    05:00 +9°C° 0 mm 0 mps 599 mmHg 86%
    06:00 +10°C° 0 mm 0 mps 600 mmHg 85%
    07:00 +11°C° 0 mm 0 mps 600 mmHg 83%
    08:00 +13°C° 0.1 mm 0 mps 601 mmHg 77%
    09:00 +15°C° 0.1 mm 1 mps 601 mmHg 72%
    10:00 +16°C° 0.1 mm 1 mps 602 mmHg 66%
    11:00 +18°C° 0.3 mm 1 mps 602 mmHg 63%
    12:00 +19°C° 0.3 mm 1 mps 602 mmHg 60%
    13:00 +19°C° 0.3 mm 1 mps 602 mmHg 57%
    14:00 +19°C° 0.6 mm 1 mps 602 mmHg 61%
    15:00 +18°C° 0.6 mm 1 mps 602 mmHg 66%
    16:00 +18°C° 0.6 mm 1 mps 601 mmHg 71%
    17:00 +15°C° 0.8 mm 1 mps 601 mmHg 77%
    18:00 +13°C° 0.8 mm 1 mps 600 mmHg 84%
    19:00 +10°C° 0.8 mm 0 mps 599 mmHg 91%
    20:00 +10°C° 0.2 mm 0 mps 599 mmHg 91%
    21:00 +9°C° 0.2 mm 0 mps 599 mmHg 91%
    22:00 +9°C° 0.2 mm 0 mps 599 mmHg 91%
    23:00 +9°C° 0 mm 0 mps 599 mmHg 90%
    Show more